Regional Weather Roundup
Issued by NWS Wakefield, VA

Home | Current Version | Previous Version | Text Only | Print | Product List | Glossary On
Versions: 1 2 3 4 5 6 7 8 9 10 11 12 13 14 15 16 17 18 19 20 21 22 23 24 25 26 27 28 29 30 31 32 33 34 35 36 37 38 39 40 41 42 43 44 45 46 47 48 49 50
769
ASUS41 KAKQ 222216
RWRAKQ

REGIONAL WEATHER ROUNDUP
NATIONAL WEATHER SERVICE WAKEFIELD VA
500 PM EST MON JAN 22 2018

Note: "fair" indicates few or no clouds below 12,000 feet with no
significant weather and/or obstructions to visibility. * = Denotes
station may not report precipitation (e.g., rain,snow,etc.),
thunder or fog.

VAZ042-051-052>054-056-222300-
NORTHERN VIRGINIA

CITY           SKY/WX    TMP DP  RH WIND       PRES   REMARKS
WASH NATIONAL  MOCLDY    58  42  55 S13       30.02S
DULLES         MOCLDY    63  42  46 S7        30.01R
FORT BELVOIR   FAIR      62  42  49 SE7       30.02S
QUANTICO       MOCLDY    52  41  66 W10       30.04S
FREDERICKSBRG* FAIR      63  46  52 S9        30.02S
STAFFORD*      FAIR      64  43  46 S6        30.06S
WARRENTON      FAIR      63  38  39 S3        30.00F
CULPEPER*      FAIR      63  40  43 S3        30.01F
MANASSAS*      FAIR      63  42  46 S10       30.01S
LEESBURG*      FAIR      63  45  51 S13       30.01S
WINCHESTER     FAIR      61  39  44 S14       29.98R
FRONT ROYAL*   FAIR      63  41  45 MISG      29.95S
LURAY*         FAIR      63  41  45 S9G18     29.97S
$$

VAZ048-049-060>072-079>083-222300-
CENTRAL AND SOUTH CENTRAL VIRGINIA

CITY           SKY/WX    TMP DP  RH WIND       PRES   REMARKS
RICHMOND       CLOUDY    63  44  50 S12       30.06F
CHESTERFIELD*  NOT AVBL
PETERSBURG*    NOT AVBL
HANOVER        FAIR      63  43  48 S9        30.05F
TAPPAHANNOCK*  FAIR      64  45  50 SE7       30.07F
QUINTON*       FAIR      63  45  51 SE6       30.06F
CHARLOTTSVILLE FAIR      64  41  42 S17G23    30.00S
GORDONSVILLE*  FAIR      62  43  48 S10G17    30.00F
ORANGE*        FAIR      63  41  45 CALM      30.01S
LOUISA*        FAIR      63  42  46 S8        30.06S
BUMPASS*       FAIR      63  40  41 S9G22     30.02F
FARMVILLE*     FAIR      62  44  52 S7        30.02S
CREWE*         FAIR      61  44  54 S7        30.04F
FORT PICKETT*  FAIR      61  43  51 S6        30.04F
CHASE CITY*    FAIR      59  41  51 CALM      30.05S
CLARKSVILLE*   FAIR      59  41  51 S5        30.05S
SOUTH HILL*    FAIR      59  44  57 S7        30.12S
LAWRENCEVILLE* FAIR      61  43  51 S5        30.06F
EMPORIA*       FAIR      61  43  51 SE7       30.09F
$$

VAZ088>098-222300-
SOUTHEAST VIRGINIA

CITY           SKY/WX    TMP DP  RH WIND       PRES   REMARKS
NORFOLK        FAIR      63  44  50 S10       30.09F
VIRGINIA BEACH CLOUDY    57  41  55 S9        30.10F
NORFOLK NAVAL  MOCLDY    63  43  48 S8G16     30.10F
WEST POINT*    FAIR      62  43  51 SE6       30.09F
SALUDA*        FAIR      55  44  66 E3        30.08S
NEWPORT NEWS   FAIR      62  43  49 S6        30.08F
LANGLEY AFB    FAIR      60  43  52 S9        30.09F
FORT EUSTIS    FAIR      61  43  50 S8        30.05F
WILLIAMSBURG*  FAIR      63  46  55 CALM      30.09F
HR EXEC AP*    FAIR      62  44  51 SE7       30.09F
FRANKLIN*      FAIR      60  44  55 SE8       30.09F
US460-WAKEFLD  FAIR      62  45  53 S6        30.08F
$$

VAZ020-022-025-037-045-222300-
WEST CENTRAL AND SOUTHWEST VIRGINIA

CITY           SKY/WX    TMP DP  RH WIND       PRES   REMARKS
STAUNTON*      FAIR      59  40  49 S9G17     29.99F
WAYNESBORO*    FAIR      59  41  49 S12       30.00F
HOT SPRINGS VA FAIR      49  33  55 S10G18    30.01S
LYNCHBURG      FAIR      57  41  55 S8        30.03S
DANVILLE       FAIR      61  42  49 S5        30.04F
SOUTH BOSTON*  FAIR      59  38  45 S6        30.06R
MARTINSVILLE   FAIR      60  40  48 S5        30.05F
ROANOKE        CLOUDY    59  40  49 S13       30.02F
BLACKSBURG     FAIR      57  40  52 S12       30.03F
DUBLIN*        FAIR      58  41  53 S10G17    30.01S
MARION*        FAIR      58  38  47 S6        30.01S
HILLSVILLE*    MOCLDY    54  40  59 S5        30.02R
RICHLANDS*     MOCLDY    59  40  49 S9G21     29.95S
WISE*          CLOUDY    55  45  67 S7        29.92F
ABINGDON*      LGT RAIN  61  44  53 S7        29.95F
$$

MDZ021>025-VAZ099-100-222300-
SOUTHERN MARYLAND AND THE DELMARVA PENINSULA

CITY           SKY/WX    TMP DP  RH WIND       PRES   REMARKS
PATUXENT RIVER MOCLDY    47  40  76 SE6       30.06
BAY BRIDGE APT FAIR      54  43  66 S9        30.05S
LEONARDTOWN    FAIR      61  43  51 SE5       30.07F
DOVER          FAIR      60  46  60 S12       30.07S
GEORGETOWN     FAIR      61  44  53 S5        30.09F
EASTON         MOCLDY    59  43  55 S9G16     30.10F
CAMBRIDGE      CLEAR     54  43  66 SE10      30.08F
SALISBURY      FAIR      60  44  55 S6        30.09F
OCEAN CITY     FAIR      43  38  82 S6        30.13R
WALLOPS ISLAND FAIR      47  40  76 S7        30.13S
ACCOMACK*      FAIR      54  42  65 S8        30.11S
$$

NCZ012>017-030>032-222300-
NORTH CENTRAL AND EASTERN NORTH CAROLINA

CITY           SKY/WX    TMP DP  RH WIND       PRES   REMARKS
ROANOKE RAPIDS FAIR      61  46  59 S5        30.09S
RALEIGH        MOCLDY    59  42  53 S8        30.08S
ELIZABETH CITY FAIR      49  48  97 SE7       30.12F
AHOSKIE*       FAIR      59  47  63 S3        30.10S
EDENTON*       FAIR      60  48  65 S7        30.12F
CURRITUCK*     FAIR      57  44  60 CALM      30.13F
KILL DEVIL HLS FAIR      54  40  60 CALM      30.13F
MANTEO         FAIR      52  41  65 S5        30.15F
CAPE HATTERAS  NOT AVBL
TARBORO*       NOT AVBL
GOLDSBORO      FAIR      64  51  62 S7        30.09S
WASHINGTON     CLOUDY    63  49  60 CALM      30.12S
GREENVILLE     FAIR      64  50  59 S6        30.12S
NEW BERN       CLOUDY    63  53  70 S9        30.13F
WILMINGTON     MOCLDY    56  56 100 SE5       30.13F
$$

VAZ048-222300-
ELSEWHERE

CITY           SKY/WX    TMP DP  RH WIND       PRES   REMARKS
HARRISBURG PA  CLOUDY    50  43  77 E6        30.01F
BALTIMORE      MOCLDY    59  42  53 SE8       30.02S
ANNAPOLIS      FAIR      52  42  69 S9        30.04F
ANDREWS AFB    FAIR      61  43  50 S14       30.02S
PHILADELPHIA   CLOUDY    55  41  59 SE3       30.07F
HENDERSON NC   FAIR      56  38  50 S5        30.07R
GREENSBORO     CLOUDY    60  43  53 S10       30.04F
ROCKY MOUNT    FAIR      62  47  57 S6        30.10S
$$

VAZ100-222300-
MARINE

STATION/POSITION TIME  TEMP    WIND        PRES    WAVE   SWELL
                       AIR SEA DIR/SP/G            HT/PER HT/PER
                 (UTC) (F)     (DEG/KT/KT) (MB)    (FT/S) (FT/S)
BRANDYWINE LGT   2136   60     190/ 18/ 19 1019.4F
CAPE MAY NJ      2136   53 35  170/ 10/ 13 1018.8F
LEWES DE         2136   60 35  160/  4/  5 1019.0F
15NM E FENWICK I 2150   44 39  160/ 10/ 10 1020.5F   1/10   2/10
OCEAN-CITY-INLET 2136   41 38  210/  7/  9 1020.5R
WACHAPREAGUE VA  2136   46 45  180/  6/  7 1019.8F
THOMAS POINT MD  2200   45 34  170/ 12/ 13   N/A
COVE POINT MD    2136   40     180/ 15/ 17 1018.7F
SOLOMONS ISLAND  2136   46 35  120/ 12/ 13 1017.5F
BISHOPS HEAD MD  2136   45 39  170/ 10     1019.1F
PINEY POINT MD   2142          140/ 10/ 12   N/A
CAMBRIDGE MD     2136   55 35              1019.2F
LEWISETTA VA     2136   60 38  190/  9/ 10 1018.2F
RAPPAHANNOCK LGT 2148          140/ 15/ 16 1019.6F
YORK RVR RNG VA  2148   42     160/ 12/ 13 1019.4F
YORKTOWN VA      2148      36   60/  4/  6 1018.5F
DOMINION TERM VA 2148   53     170/  7/ 10 1019.1F
KIPTOPEKE VA     2148      36  160/ 12/ 13   N/A
CAPE HENRY VA    2148   56     150/  9/ 11   N/A
WILLOUBY STN VA  2142          180/ 11/ 12 1018.9F
S CRANEY ISL VA  2148   54     170/ 11/ 14 1018.8F
CAPE HENRY BUOY  2200      41                N/A     1/ 9
CAPE CHARLES BUO 2151      40                N/A     1/11
64NM E OF VA BCH 2150   60 59  190/  8/  8 1021.4S   1/11   2/11
DUCK PIER NC     2148   49 41  160/  9/ 10 1020.1R
44100 DUCK FRF   2145      40                N/A     1/10
44056 DUCK FRF   2200      42                N/A     1/11
OREGON INLET NC  2142   52 42  160/  3/  4 1020.9R
HATTERAS NC      2148   59 52  110/  4/  6 1020.6F
DIAMOND SHLS NC  2200   69 73  200/ 10/ 12 1021.2
CAPE LOOKOUT NC  2200          150/  4/  4 1020.8F
$$




USA.gov is the U.S. government's official web portal to all federal, state and local government web resources and services.